Year,Month,Day,Hour,Minute,Value (Times are PST for windgust in km/hr)
2016,02,17,00,00,1.60
2016,02,17,00,01,1.60
2016,02,17,00,02,1.60
2016,02,17,00,03,1.60
2016,02,17,00,04,1.60
2016,02,17,00,05,1.60
2016,02,17,00,06,1.60
2016,02,17,00,07,1.60
2016,02,17,00,08,1.60
2016,02,17,00,09,1.60
2016,02,17,00,14,1.60
2016,02,17,00,15,1.60
2016,02,17,00,30,1.60
2016,02,17,00,31,3.20
2016,02,17,00,32,1.60
2016,02,17,00,33,1.60
2016,02,17,01,15,3.20
2016,02,17,01,16,4.80
2016,02,17,01,17,4.80
2016,02,17,01,18,4.80
2016,02,17,01,19,3.20
2016,02,17,01,20,3.20
2016,02,17,01,21,4.80
2016,02,17,01,22,3.20
2016,02,17,01,23,3.20
2016,02,17,01,24,4.80
2016,02,17,01,25,6.40
2016,02,17,01,26,6.40
2016,02,17,01,27,6.40
2016,02,17,01,28,4.80
2016,02,17,01,29,12.90
2016,02,17,01,30,12.90
2016,02,17,01,31,9.60
2016,02,17,01,32,8.10
2016,02,17,01,33,8.10
2016,02,17,01,34,11.30
2016,02,17,01,35,11.30
2016,02,17,01,36,6.40
2016,02,17,01,37,6.40
2016,02,17,01,38,9.60
2016,02,17,01,39,12.90
2016,02,17,01,40,9.60
2016,02,17,01,41,9.60
2016,02,17,01,42,11.30
2016,02,17,01,43,11.30
2016,02,17,01,44,9.60
2016,02,17,01,45,11.30
2016,02,17,01,46,9.60
2016,02,17,01,47,11.30
2016,02,17,01,48,12.90
2016,02,17,01,49,11.30
2016,02,17,01,50,11.30
2016,02,17,01,51,14.50
2016,02,17,01,52,12.90
2016,02,17,01,53,12.90
2016,02,17,01,54,9.60
2016,02,17,01,55,12.90
2016,02,17,01,56,12.90
2016,02,17,01,57,11.30
2016,02,17,01,58,9.60
2016,02,17,01,59,11.30
2016,02,17,02,00,9.60
2016,02,17,02,01,9.60
2016,02,17,02,02,11.30
2016,02,17,02,03,12.90
2016,02,17,02,04,6.40
2016,02,17,02,05,12.90
2016,02,17,02,06,12.90
2016,02,17,02,07,11.30
2016,02,17,02,08,6.40
2016,02,17,02,09,9.60
2016,02,17,02,10,12.90
2016,02,17,02,11,12.90
2016,02,17,02,12,9.60
2016,02,17,02,13,11.30
2016,02,17,02,14,11.30
2016,02,17,02,15,14.50
2016,02,17,02,16,14.50
2016,02,17,02,17,14.50
2016,02,17,02,18,11.30
2016,02,17,02,19,14.50
2016,02,17,02,20,14.50
2016,02,17,02,21,14.50
2016,02,17,02,22,12.90
2016,02,17,02,23,11.30
2016,02,17,02,24,11.30
2016,02,17,02,25,14.50
2016,02,17,02,26,12.90
2016,02,17,02,27,14.50
2016,02,17,02,28,16.10
2016,02,17,02,29,12.90
2016,02,17,02,30,11.30
2016,02,17,02,31,11.30
2016,02,17,02,32,14.50
2016,02,17,02,33,12.90
2016,02,17,02,34,12.90
2016,02,17,02,35,16.10
2016,02,17,02,36,16.10
2016,02,17,02,37,14.50
2016,02,17,02,38,14.50
2016,02,17,02,39,14.50
2016,02,17,02,40,14.50
2016,02,17,02,41,12.90
2016,02,17,02,42,17.70
2016,02,17,02,43,16.10
2016,02,17,02,44,11.30
2016,02,17,02,45,11.30
2016,02,17,02,46,11.30
2016,02,17,02,47,12.90
2016,02,17,02,48,11.30
2016,02,17,02,49,8.10
2016,02,17,02,50,16.10
2016,02,17,02,51,12.90
2016,02,17,02,52,12.90
2016,02,17,02,53,16.10
2016,02,17,02,54,17.70
2016,02,17,02,55,11.30
2016,02,17,02,56,14.50
2016,02,17,02,57,16.10
2016,02,17,02,58,16.10
2016,02,17,02,59,12.90
2016,02,17,03,00,16.10
2016,02,17,03,01,17.70
2016,02,17,03,02,14.50
2016,02,17,03,03,16.10
2016,02,17,03,05,14.50
2016,02,17,03,06,11.30
2016,02,17,03,07,11.30
2016,02,17,03,08,11.30
2016,02,17,03,09,9.60
2016,02,17,03,10,14.50
2016,02,17,03,11,14.50
2016,02,17,03,12,12.90
2016,02,17,03,13,14.50
2016,02,17,03,14,14.50
2016,02,17,03,15,16.10
2016,02,17,03,16,17.70
2016,02,17,03,17,16.10
2016,02,17,03,18,19.30
2016,02,17,03,19,17.70
2016,02,17,03,20,16.10
2016,02,17,03,21,16.10
2016,02,17,03,22,14.50
2016,02,17,03,23,19.30
2016,02,17,03,24,14.50
2016,02,17,03,25,22.50
2016,02,17,03,26,12.90
2016,02,17,03,27,17.70
2016,02,17,03,28,19.30
2016,02,17,03,29,17.70
2016,02,17,03,30,19.30
2016,02,17,03,31,17.70
2016,02,17,03,32,12.90
2016,02,17,03,33,17.70
2016,02,17,03,34,16.10
2016,02,17,03,35,14.50
2016,02,17,03,36,14.50
2016,02,17,03,37,17.70
2016,02,17,03,38,11.30
2016,02,17,03,39,17.70
2016,02,17,03,40,19.30
2016,02,17,03,41,17.70
2016,02,17,03,42,12.90
2016,02,17,03,43,12.90
2016,02,17,03,44,16.10
2016,02,17,03,45,17.70
2016,02,17,03,46,19.30
2016,02,17,03,47,14.50
2016,02,17,03,48,24.20
2016,02,17,03,49,17.70
2016,02,17,03,50,16.10
2016,02,17,03,51,19.30
2016,02,17,03,52,17.70
2016,02,17,03,53,17.70
2016,02,17,03,54,19.30
2016,02,17,03,55,22.50
2016,02,17,03,56,17.70
2016,02,17,03,57,14.50
2016,02,17,03,58,16.10
2016,02,17,03,59,14.50
2016,02,17,04,00,19.30
2016,02,17,04,01,19.30
2016,02,17,04,02,19.30
2016,02,17,04,03,19.30
2016,02,17,04,04,17.70
2016,02,17,04,05,16.10
2016,02,17,04,06,9.60
2016,02,17,04,07,12.90
2016,02,17,04,08,12.90
2016,02,17,04,09,11.30
2016,02,17,04,10,16.10
2016,02,17,04,11,14.50
2016,02,17,04,12,16.10
2016,02,17,04,13,12.90
2016,02,17,04,14,16.10
2016,02,17,04,15,17.70
2016,02,17,04,16,16.10
2016,02,17,04,17,17.70
2016,02,17,04,18,16.10
2016,02,17,04,19,17.70
2016,02,17,04,20,14.50
2016,02,17,04,21,14.50
2016,02,17,04,22,16.10
2016,02,17,04,23,17.70
2016,02,17,04,24,16.10
2016,02,17,04,25,14.50
2016,02,17,04,26,17.70
2016,02,17,04,27,14.50
2016,02,17,04,28,17.70
2016,02,17,04,29,19.30
2016,02,17,04,30,16.10
2016,02,17,04,31,14.50
2016,02,17,04,32,16.10
2016,02,17,04,33,14.50
2016,02,17,04,34,16.10
2016,02,17,04,35,14.50
2016,02,17,04,36,12.90
2016,02,17,04,37,16.10
2016,02,17,04,38,12.90
2016,02,17,04,39,16.10
2016,02,17,04,40,12.90
2016,02,17,04,41,11.30
2016,02,17,04,42,12.90
2016,02,17,04,43,12.90
2016,02,17,04,44,9.60
2016,02,17,04,45,12.90
2016,02,17,04,46,16.10
2016,02,17,04,47,8.10
2016,02,17,04,48,14.50
2016,02,17,04,49,14.50
2016,02,17,04,50,12.90
2016,02,17,04,51,12.90
2016,02,17,04,52,14.50
2016,02,17,04,53,12.90
2016,02,17,04,54,16.10
2016,02,17,04,55,14.50
2016,02,17,04,56,11.30
2016,02,17,04,57,12.90
2016,02,17,04,58,11.30
2016,02,17,04,59,12.90
2016,02,17,05,00,16.10
2016,02,17,05,01,11.30
2016,02,17,05,02,14.50
2016,02,17,05,03,12.90
2016,02,17,05,04,11.30
2016,02,17,05,05,12.90
2016,02,17,05,06,12.90
2016,02,17,05,07,16.10
2016,02,17,05,08,16.10
2016,02,17,05,09,11.30
2016,02,17,05,10,12.90
2016,02,17,05,11,11.30
2016,02,17,05,12,11.30
2016,02,17,05,13,11.30
2016,02,17,05,14,14.50
2016,02,17,05,15,11.30
2016,02,17,05,16,11.30
2016,02,17,05,17,12.90
2016,02,17,05,18,12.90
2016,02,17,05,19,16.10
2016,02,17,05,20,14.50
2016,02,17,05,21,14.50
2016,02,17,05,22,14.50
2016,02,17,05,23,9.60
2016,02,17,05,24,12.90
2016,02,17,05,25,12.90
2016,02,17,05,26,14.50
2016,02,17,05,27,19.30
2016,02,17,05,28,14.50
2016,02,17,05,29,12.90
2016,02,17,05,30,14.50
2016,02,17,05,31,12.90
2016,02,17,05,32,14.50
2016,02,17,05,33,12.90
2016,02,17,05,34,11.30
2016,02,17,05,35,12.90
2016,02,17,05,36,14.50
2016,02,17,05,37,14.50
2016,02,17,05,38,14.50
2016,02,17,05,39,14.50
2016,02,17,05,40,12.90
2016,02,17,05,41,11.30
2016,02,17,05,42,14.50
2016,02,17,05,43,12.90
2016,02,17,05,44,9.60
2016,02,17,05,45,9.60
2016,02,17,05,46,6.40
2016,02,17,05,47,6.40
2016,02,17,05,48,4.80
2016,02,17,05,49,6.40
2016,02,17,05,50,8.10
2016,02,17,05,51,8.10
2016,02,17,05,52,4.80
2016,02,17,05,53,3.20
2016,02,17,05,54,8.10
2016,02,17,05,55,6.40
2016,02,17,05,56,11.30
2016,02,17,05,57,6.40
2016,02,17,05,58,9.60
2016,02,17,05,59,14.50
2016,02,17,06,00,16.10
2016,02,17,06,01,11.30
2016,02,17,06,02,12.90
2016,02,17,06,03,12.90
2016,02,17,06,04,12.90
2016,02,17,06,05,12.90
2016,02,17,06,06,9.60
2016,02,17,06,07,11.30
2016,02,17,06,08,14.50
2016,02,17,06,09,12.90
2016,02,17,06,10,12.90
2016,02,17,06,11,11.30
2016,02,17,06,12,12.90
2016,02,17,06,13,12.90
2016,02,17,06,14,12.90
2016,02,17,06,15,11.30
2016,02,17,06,16,17.70
2016,02,17,06,17,9.60
2016,02,17,06,18,11.30
2016,02,17,06,19,14.50
2016,02,17,06,20,8.10
2016,02,17,06,21,11.30
2016,02,17,06,22,11.30
2016,02,17,06,23,8.10
2016,02,17,06,24,11.30
2016,02,17,06,25,11.30
2016,02,17,06,26,12.90
2016,02,17,06,27,12.90
2016,02,17,06,28,14.50
2016,02,17,06,29,8.10
2016,02,17,06,30,11.30
2016,02,17,06,31,8.10
2016,02,17,06,32,8.10
2016,02,17,06,33,6.40
2016,02,17,06,34,8.10
2016,02,17,06,35,8.10
2016,02,17,06,36,4.80
2016,02,17,06,37,8.10
2016,02,17,06,38,8.10
2016,02,17,06,39,4.80
2016,02,17,06,40,6.40
2016,02,17,06,41,8.10
2016,02,17,06,42,6.40
2016,02,17,06,43,6.40
2016,02,17,06,44,12.90
2016,02,17,06,45,11.30
2016,02,17,06,46,12.90
2016,02,17,06,47,6.40
2016,02,17,06,48,9.60
2016,02,17,06,49,6.40
2016,02,17,06,50,11.30
2016,02,17,06,51,11.30
2016,02,17,06,52,6.40
2016,02,17,06,53,8.10
2016,02,17,06,54,6.40
2016,02,17,06,55,6.40
2016,02,17,06,56,9.60
2016,02,17,06,57,4.80
2016,02,17,06,58,9.60
2016,02,17,06,59,8.10
2016,02,17,07,00,8.10
2016,02,17,07,01,8.10
2016,02,17,07,02,4.80
2016,02,17,07,03,4.80
2016,02,17,07,04,12.90
2016,02,17,07,05,8.10
2016,02,17,07,06,4.80
2016,02,17,07,07,4.80
2016,02,17,07,08,4.80
2016,02,17,07,09,11.30
2016,02,17,07,10,8.10
2016,02,17,07,11,9.60
2016,02,17,07,12,12.90
2016,02,17,07,13,9.60
2016,02,17,07,14,8.10
2016,02,17,07,15,11.30
2016,02,17,07,16,14.50
2016,02,17,07,17,6.40
2016,02,17,07,18,16.10
2016,02,17,07,19,11.30
2016,02,17,07,20,9.60
2016,02,17,07,21,8.10
2016,02,17,07,22,6.40
2016,02,17,07,23,3.20
2016,02,17,07,24,9.60
2016,02,17,07,25,8.10
2016,02,17,07,26,6.40
2016,02,17,07,27,11.30
2016,02,17,07,28,9.60
2016,02,17,07,29,11.30
2016,02,17,07,30,11.30
2016,02,17,07,31,8.10
2016,02,17,07,32,8.10
2016,02,17,07,33,6.40
2016,02,17,07,34,6.40
2016,02,17,07,35,9.60
2016,02,17,07,36,9.60
2016,02,17,07,37,8.10
2016,02,17,07,38,8.10
2016,02,17,07,39,8.10
2016,02,17,07,40,8.10
2016,02,17,07,41,8.10
2016,02,17,07,42,11.30
2016,02,17,07,43,8.10
2016,02,17,07,44,12.90
2016,02,17,07,45,12.90
2016,02,17,07,46,8.10
2016,02,17,07,47,8.10
2016,02,17,07,48,11.30
2016,02,17,07,49,8.10
2016,02,17,07,50,11.30
2016,02,17,07,51,4.80
2016,02,17,07,52,4.80
2016,02,17,07,53,4.80
2016,02,17,07,54,6.40
2016,02,17,07,55,6.40
2016,02,17,07,56,6.40
2016,02,17,07,57,4.80
2016,02,17,07,58,4.80
2016,02,17,07,59,4.80
2016,02,17,08,00,6.40
2016,02,17,08,01,6.40
2016,02,17,08,02,9.60
2016,02,17,08,03,8.10
2016,02,17,08,04,6.40
2016,02,17,08,05,4.80
2016,02,17,08,06,6.40
2016,02,17,08,07,8.10
2016,02,17,08,08,6.40
2016,02,17,08,09,6.40
2016,02,17,08,10,6.40
2016,02,17,08,11,8.10
2016,02,17,08,12,8.10
2016,02,17,08,13,6.40
2016,02,17,08,14,6.40
2016,02,17,08,15,6.40
2016,02,17,08,16,3.20
2016,02,17,08,17,8.10
2016,02,17,08,18,6.40
2016,02,17,08,19,9.60
2016,02,17,08,20,9.60
2016,02,17,08,21,8.10
2016,02,17,08,22,8.10
2016,02,17,08,23,9.60
2016,02,17,08,24,6.40
2016,02,17,08,25,4.80
2016,02,17,08,26,6.40
2016,02,17,08,27,11.30
2016,02,17,08,28,12.90
2016,02,17,08,29,6.40
2016,02,17,08,30,8.10
2016,02,17,08,31,8.10
2016,02,17,08,32,4.80
2016,02,17,08,33,4.80
2016,02,17,08,34,4.80
2016,02,17,08,35,4.80
2016,02,17,08,36,6.40
2016,02,17,08,37,9.60
2016,02,17,08,38,8.10
2016,02,17,08,39,8.10
2016,02,17,08,40,6.40
2016,02,17,08,41,4.80
2016,02,17,08,42,4.80
2016,02,17,08,43,8.10
2016,02,17,08,44,4.80
2016,02,17,08,45,3.20
2016,02,17,08,46,3.20
2016,02,17,08,47,3.20
2016,02,17,08,48,4.80
2016,02,17,08,49,6.40
2016,02,17,08,50,4.80
2016,02,17,08,51,6.40
2016,02,17,08,52,6.40
2016,02,17,08,53,6.40
2016,02,17,08,54,4.80
2016,02,17,08,55,4.80
2016,02,17,08,56,3.20
2016,02,17,08,57,8.10
2016,02,17,08,58,4.80
2016,02,17,08,59,6.40
2016,02,17,09,00,6.40
2016,02,17,09,01,4.80
2016,02,17,09,02,6.40
2016,02,17,09,03,8.10
2016,02,17,09,04,4.80
2016,02,17,09,05,6.40
2016,02,17,09,06,6.40
2016,02,17,09,07,6.40
2016,02,17,09,08,11.30
2016,02,17,09,09,8.10
2016,02,17,09,10,8.10
2016,02,17,09,11,4.80
2016,02,17,09,12,6.40
2016,02,17,09,13,11.30
2016,02,17,09,14,6.40
2016,02,17,09,15,6.40
2016,02,17,09,16,9.60
2016,02,17,09,17,8.10
2016,02,17,09,18,11.30
2016,02,17,09,19,11.30
2016,02,17,09,20,11.30
2016,02,17,09,21,12.90
2016,02,17,09,22,12.90
2016,02,17,09,23,9.60
2016,02,17,09,24,8.10
2016,02,17,09,25,9.60
2016,02,17,09,26,9.60
2016,02,17,09,27,6.40
2016,02,17,09,28,8.10
2016,02,17,09,29,6.40
2016,02,17,09,30,8.10
2016,02,17,09,31,9.60
2016,02,17,09,32,12.90
2016,02,17,09,33,12.90
2016,02,17,09,34,6.40
2016,02,17,09,35,9.60
2016,02,17,09,36,6.40
2016,02,17,09,37,8.10
2016,02,17,09,38,8.10
2016,02,17,09,39,8.10
2016,02,17,09,40,9.60
2016,02,17,09,41,9.60
2016,02,17,09,42,8.10
2016,02,17,09,43,11.30
2016,02,17,09,44,11.30
2016,02,17,09,45,11.30
2016,02,17,09,46,11.30
2016,02,17,09,47,11.30
2016,02,17,09,48,12.90
2016,02,17,09,49,11.30
2016,02,17,09,50,8.10
2016,02,17,09,51,8.10
2016,02,17,09,52,9.60
2016,02,17,09,53,12.90
2016,02,17,09,54,12.90
2016,02,17,09,55,8.10
2016,02,17,09,56,11.30
2016,02,17,09,57,11.30
2016,02,17,09,58,8.10
2016,02,17,09,59,8.10
2016,02,17,10,00,9.60
2016,02,17,10,01,9.60
2016,02,17,10,02,8.10
2016,02,17,10,03,8.10
2016,02,17,10,04,6.40
2016,02,17,10,05,8.10
2016,02,17,10,06,8.10
2016,02,17,10,07,9.60
2016,02,17,10,08,9.60
2016,02,17,10,09,9.60
2016,02,17,10,10,9.60
2016,02,17,10,11,9.60
2016,02,17,10,12,12.90
2016,02,17,10,13,8.10
2016,02,17,10,14,8.10
2016,02,17,10,15,8.10
2016,02,17,10,16,4.80
2016,02,17,10,17,12.90
2016,02,17,10,18,8.10
2016,02,17,10,19,9.60
2016,02,17,10,20,9.60
2016,02,17,10,21,11.30
2016,02,17,10,22,11.30
2016,02,17,10,23,9.60
2016,02,17,10,24,9.60
2016,02,17,10,25,6.40
2016,02,17,10,26,8.10
2016,02,17,10,27,6.40
2016,02,17,10,28,12.90
2016,02,17,10,29,6.40
2016,02,17,10,30,6.40
2016,02,17,10,31,8.10
2016,02,17,10,32,8.10
2016,02,17,10,33,8.10
2016,02,17,10,34,14.50
2016,02,17,10,35,8.10
2016,02,17,10,36,6.40
2016,02,17,10,37,4.80
2016,02,17,10,38,9.60
2016,02,17,10,39,6.40
2016,02,17,10,40,4.80
2016,02,17,10,41,4.80
2016,02,17,10,42,9.60
2016,02,17,10,43,8.10
2016,02,17,10,44,8.10
2016,02,17,10,45,6.40
2016,02,17,10,46,8.10
2016,02,17,10,47,4.80
2016,02,17,10,48,8.10
2016,02,17,10,49,6.40
2016,02,17,10,50,9.60
2016,02,17,10,51,8.10
2016,02,17,10,52,8.10
2016,02,17,10,53,8.10
2016,02,17,10,54,4.80
2016,02,17,10,55,6.40
2016,02,17,10,56,4.80
2016,02,17,10,57,8.10
2016,02,17,10,58,6.40
2016,02,17,10,59,6.40
2016,02,17,11,00,4.80
2016,02,17,11,01,9.60
2016,02,17,11,02,12.90
2016,02,17,11,03,6.40
2016,02,17,11,04,6.40
2016,02,17,11,05,11.30
2016,02,17,11,06,6.40
2016,02,17,11,07,8.10
2016,02,17,11,08,9.60
2016,02,17,11,09,6.40
2016,02,17,11,10,12.90
2016,02,17,11,11,8.10
2016,02,17,11,12,8.10
2016,02,17,11,13,11.30
2016,02,17,11,14,8.10
2016,02,17,11,15,6.40
2016,02,17,11,16,8.10
2016,02,17,11,17,11.30
2016,02,17,11,18,11.30
2016,02,17,11,19,11.30
2016,02,17,11,20,9.60
2016,02,17,11,21,8.10
2016,02,17,11,22,6.40
2016,02,17,11,23,8.10
2016,02,17,11,24,9.60
2016,02,17,11,25,9.60
2016,02,17,11,26,6.40
2016,02,17,11,27,8.10
2016,02,17,11,28,6.40
2016,02,17,11,29,8.10
2016,02,17,11,30,11.30
2016,02,17,11,31,6.40
2016,02,17,11,32,9.60
2016,02,17,11,33,11.30
2016,02,17,11,34,8.10
2016,02,17,11,35,6.40
2016,02,17,11,36,6.40
2016,02,17,11,37,3.20
2016,02,17,11,38,8.10
2016,02,17,11,39,11.30
2016,02,17,11,40,6.40
2016,02,17,11,41,6.40
2016,02,17,11,42,4.80
2016,02,17,11,43,6.40
2016,02,17,11,44,8.10
2016,02,17,11,45,8.10
2016,02,17,11,46,4.80
2016,02,17,11,47,3.20
2016,02,17,11,48,4.80
2016,02,17,11,49,4.80
2016,02,17,11,50,8.10
2016,02,17,11,51,8.10
2016,02,17,11,52,9.60
2016,02,17,11,53,9.60
2016,02,17,11,54,8.10
2016,02,17,11,55,6.40
2016,02,17,11,56,4.80
2016,02,17,11,57,8.10
2016,02,17,11,58,8.10
2016,02,17,11,59,6.40
2016,02,17,12,00,4.80
2016,02,17,12,01,6.40
2016,02,17,12,02,4.80
2016,02,17,12,03,9.60
2016,02,17,12,04,9.60
2016,02,17,12,05,8.10
2016,02,17,12,06,4.80
2016,02,17,12,07,8.10
2016,02,17,12,08,6.40
2016,02,17,12,09,4.80
2016,02,17,12,10,6.40
2016,02,17,12,11,8.10
2016,02,17,12,12,4.80
2016,02,17,12,13,6.40
2016,02,17,12,14,8.10
2016,02,17,12,15,3.20
2016,02,17,12,16,6.40
2016,02,17,12,17,6.40
2016,02,17,12,18,3.20
2016,02,17,12,19,3.20
2016,02,17,12,20,4.80
2016,02,17,12,21,6.40
2016,02,17,12,22,6.40
2016,02,17,12,23,6.40
2016,02,17,12,24,8.10
2016,02,17,12,25,3.20
2016,02,17,12,26,6.40
2016,02,17,12,27,6.40
2016,02,17,12,28,3.20
2016,02,17,12,29,8.10
2016,02,17,12,30,8.10
2016,02,17,12,31,6.40
2016,02,17,12,32,6.40
2016,02,17,12,33,8.10
2016,02,17,12,34,6.40
2016,02,17,12,35,8.10
2016,02,17,12,36,6.40
2016,02,17,12,37,6.40
2016,02,17,12,38,6.40
2016,02,17,12,39,4.80
2016,02,17,12,40,12.90
2016,02,17,12,41,9.60
2016,02,17,12,42,8.10
2016,02,17,12,43,9.60
2016,02,17,12,44,4.80
2016,02,17,12,45,4.80
2016,02,17,12,46,4.80
2016,02,17,12,47,6.40
2016,02,17,12,48,6.40
2016,02,17,12,49,6.40
2016,02,17,12,50,8.10
2016,02,17,12,51,6.40
2016,02,17,12,52,6.40
2016,02,17,12,53,4.80
2016,02,17,12,54,4.80
2016,02,17,12,55,8.10
2016,02,17,12,56,8.10
2016,02,17,12,57,8.10
2016,02,17,12,58,8.10
2016,02,17,12,59,4.80
2016,02,17,13,00,4.80
2016,02,17,13,01,4.80
2016,02,17,13,02,4.80
2016,02,17,13,03,4.80
2016,02,17,13,04,3.20
2016,02,17,13,05,3.20
2016,02,17,13,06,3.20
2016,02,17,13,07,4.80
2016,02,17,13,08,4.80
2016,02,17,13,09,3.20
2016,02,17,13,10,4.80
2016,02,17,13,11,4.80
2016,02,17,13,12,6.40
2016,02,17,13,13,6.40
2016,02,17,13,14,6.40
2016,02,17,13,15,6.40
2016,02,17,13,16,8.10
2016,02,17,13,17,6.40
2016,02,17,13,18,4.80
2016,02,17,13,19,6.40
2016,02,17,13,20,6.40
2016,02,17,13,21,4.80
2016,02,17,13,22,3.20
2016,02,17,13,23,3.20
2016,02,17,13,24,4.80
2016,02,17,13,25,3.20
2016,02,17,13,26,4.80
2016,02,17,13,27,3.20
2016,02,17,13,28,4.80
2016,02,17,13,29,6.40
2016,02,17,13,30,6.40
2016,02,17,13,31,6.40
2016,02,17,13,32,4.80
2016,02,17,13,33,4.80
2016,02,17,13,34,6.40
2016,02,17,13,35,6.40
2016,02,17,13,36,6.40
2016,02,17,13,37,8.10
2016,02,17,13,38,6.40
2016,02,17,13,39,6.40
2016,02,17,13,40,6.40
2016,02,17,13,41,6.40
2016,02,17,13,42,6.40
2016,02,17,13,43,9.60
2016,02,17,13,44,6.40
2016,02,17,13,45,4.80
2016,02,17,13,46,4.80
2016,02,17,13,47,4.80
2016,02,17,13,48,6.40
2016,02,17,13,49,8.10
2016,02,17,13,50,4.80
2016,02,17,13,51,6.40
2016,02,17,13,52,8.10
2016,02,17,13,53,8.10
2016,02,17,13,54,9.60
2016,02,17,13,55,8.10
2016,02,17,13,56,8.10
2016,02,17,13,57,8.10
2016,02,17,13,58,4.80
2016,02,17,13,59,8.10
2016,02,17,14,00,8.10
2016,02,17,14,01,6.40
2016,02,17,14,02,6.40
2016,02,17,14,03,4.80
2016,02,17,14,04,8.10
2016,02,17,14,05,8.10
2016,02,17,14,06,6.40
2016,02,17,14,07,8.10
2016,02,17,14,08,9.60
2016,02,17,14,09,8.10
2016,02,17,14,10,11.30
2016,02,17,14,11,8.10
2016,02,17,14,12,6.40
2016,02,17,14,13,6.40
2016,02,17,14,14,8.10
2016,02,17,14,15,8.10
2016,02,17,14,16,6.40
2016,02,17,14,17,12.90
2016,02,17,14,18,12.90
2016,02,17,14,19,6.40
2016,02,17,14,20,4.80
2016,02,17,14,21,11.30
2016,02,17,14,22,9.60
2016,02,17,14,23,6.40
2016,02,17,14,24,4.80
2016,02,17,14,25,14.50
2016,02,17,14,26,9.60
2016,02,17,14,27,9.60
2016,02,17,14,28,11.30
2016,02,17,14,29,12.90
2016,02,17,14,30,12.90
2016,02,17,14,31,8.10
2016,02,17,14,32,6.40
2016,02,17,14,33,8.10
2016,02,17,14,34,8.10
2016,02,17,14,35,8.10
2016,02,17,14,36,8.10
2016,02,17,14,37,6.40
2016,02,17,14,38,8.10
2016,02,17,14,39,6.40
2016,02,17,14,40,6.40
2016,02,17,14,41,11.30
2016,02,17,14,42,6.40
2016,02,17,14,43,6.40
2016,02,17,14,44,8.10
2016,02,17,14,45,4.80
2016,02,17,14,46,6.40
2016,02,17,14,47,4.80
2016,02,17,14,48,4.80
2016,02,17,14,49,4.80
2016,02,17,14,50,6.40
2016,02,17,14,51,6.40
2016,02,17,14,52,4.80
2016,02,17,14,53,6.40
2016,02,17,14,54,8.10
2016,02,17,14,55,6.40
2016,02,17,14,56,6.40
2016,02,17,14,57,6.40
2016,02,17,14,58,6.40
2016,02,17,14,59,8.10
2016,02,17,15,00,6.40
2016,02,17,15,01,8.10
2016,02,17,15,02,6.40
2016,02,17,15,03,4.80
2016,02,17,15,04,4.80
2016,02,17,15,05,4.80
2016,02,17,15,06,4.80
2016,02,17,15,07,6.40
2016,02,17,15,08,4.80
2016,02,17,15,09,6.40
2016,02,17,15,10,9.60
2016,02,17,15,11,8.10
2016,02,17,15,12,6.40
2016,02,17,15,13,4.80
2016,02,17,15,14,6.40
2016,02,17,15,15,8.10
2016,02,17,15,16,4.80
2016,02,17,15,17,4.80
2016,02,17,15,18,4.80
2016,02,17,15,19,3.20
2016,02,17,15,20,3.20
2016,02,17,15,21,3.20
2016,02,17,15,22,6.40
2016,02,17,15,23,6.40
2016,02,17,15,24,4.80
2016,02,17,15,25,6.40
2016,02,17,15,26,6.40
2016,02,17,15,27,6.40
2016,02,17,15,28,4.80
2016,02,17,15,29,4.80
2016,02,17,15,30,6.40
2016,02,17,15,31,4.80
2016,02,17,15,32,6.40
2016,02,17,15,33,8.10
2016,02,17,15,34,6.40
2016,02,17,15,35,4.80
2016,02,17,15,36,3.20
2016,02,17,15,37,4.80
2016,02,17,15,38,6.40
2016,02,17,15,39,4.80
2016,02,17,15,40,3.20
2016,02,17,15,41,3.20
2016,02,17,15,42,1.60
2016,02,17,15,43,1.60
2016,02,17,15,44,4.80
2016,02,17,15,45,1.60
2016,02,17,15,46,1.60
2016,02,17,15,47,3.20
2016,02,17,15,48,3.20
2016,02,17,15,49,1.60
2016,02,17,15,50,3.20
2016,02,17,15,51,4.80
2016,02,17,15,52,6.40
2016,02,17,15,53,3.20
2016,02,17,15,54,3.20
2016,02,17,15,55,6.40
2016,02,17,15,56,4.80
2016,02,17,15,57,3.20
2016,02,17,15,58,8.10
2016,02,17,15,59,4.80
2016,02,17,16,00,6.40
2016,02,17,16,01,6.40
2016,02,17,16,02,6.40
2016,02,17,16,03,6.40
2016,02,17,16,04,4.80
2016,02,17,16,05,3.20
2016,02,17,16,06,3.20
2016,02,17,16,07,1.60
2016,02,17,16,08,3.20
2016,02,17,16,09,3.20
2016,02,17,16,10,1.60
2016,02,17,16,11,1.60
2016,02,17,16,12,1.60
2016,02,17,16,13,1.60
2016,02,17,16,14,4.80
2016,02,17,16,15,3.20
2016,02,17,16,16,3.20
2016,02,17,16,17,3.20
2016,02,17,16,18,3.20
2016,02,17,16,19,3.20
2016,02,17,16,20,3.20
2016,02,17,16,21,3.20
2016,02,17,16,22,1.60
2016,02,17,16,23,1.60
2016,02,17,16,24,1.60
2016,02,17,16,25,1.60
2016,02,17,16,26,4.80
2016,02,17,16,27,4.80
2016,02,17,16,28,3.20
2016,02,17,16,29,3.20
2016,02,17,16,30,4.80
2016,02,17,16,31,3.20
2016,02,17,16,32,3.20
2016,02,17,16,33,1.60
2016,02,17,16,34,1.60
2016,02,17,16,35,1.60
2016,02,17,16,36,3.20
2016,02,17,16,37,4.80
2016,02,17,16,38,4.80
2016,02,17,16,39,3.20
2016,02,17,16,40,3.20
2016,02,17,16,41,6.40
2016,02,17,16,42,6.40
2016,02,17,16,43,6.40
2016,02,17,16,44,8.10
2016,02,17,16,45,8.10
2016,02,17,16,46,11.30
2016,02,17,16,47,6.40
2016,02,17,16,48,6.40
2016,02,17,16,49,6.40
2016,02,17,16,50,6.40
2016,02,17,16,51,6.40
2016,02,17,16,52,4.80
2016,02,17,16,53,6.40
2016,02,17,16,54,8.10
2016,02,17,16,55,6.40
2016,02,17,16,56,8.10
2016,02,17,16,57,8.10
2016,02,17,16,58,6.40
2016,02,17,16,59,9.60
2016,02,17,17,00,11.30
2016,02,17,17,01,8.10
2016,02,17,17,02,6.40
2016,02,17,17,03,6.40
2016,02,17,17,04,6.40
2016,02,17,17,05,6.40
2016,02,17,17,06,4.80
2016,02,17,17,07,8.10
2016,02,17,17,08,11.30
2016,02,17,17,09,9.60
2016,02,17,17,10,9.60
2016,02,17,17,11,6.40
2016,02,17,17,12,8.10
2016,02,17,17,13,8.10
2016,02,17,17,14,11.30
2016,02,17,17,15,12.90
2016,02,17,17,16,14.50
2016,02,17,17,17,11.30
2016,02,17,17,18,8.10
2016,02,17,17,19,8.10
2016,02,17,17,20,12.90
2016,02,17,17,21,11.30
2016,02,17,17,22,11.30
2016,02,17,17,23,8.10
2016,02,17,17,24,12.90
2016,02,17,17,25,9.60
2016,02,17,17,26,9.60
2016,02,17,17,27,8.10
2016,02,17,17,28,12.90
2016,02,17,17,29,6.40
2016,02,17,17,30,8.10
2016,02,17,17,31,9.60
2016,02,17,17,32,9.60
2016,02,17,17,33,6.40
2016,02,17,17,34,8.10
2016,02,17,17,35,9.60
2016,02,17,17,36,9.60
2016,02,17,17,37,8.10
2016,02,17,17,38,6.40
2016,02,17,17,39,8.10
2016,02,17,17,40,12.90
2016,02,17,17,41,11.30
2016,02,17,17,42,8.10
2016,02,17,17,43,4.80
2016,02,17,17,44,6.40
2016,02,17,17,45,4.80
2016,02,17,17,46,6.40
2016,02,17,17,47,6.40
2016,02,17,17,48,8.10
2016,02,17,17,49,6.40
2016,02,17,17,50,6.40
2016,02,17,17,51,11.30
2016,02,17,17,52,9.60
2016,02,17,17,53,8.10
2016,02,17,17,54,8.10
2016,02,17,17,55,12.90
2016,02,17,17,56,11.30
2016,02,17,17,57,12.90
2016,02,17,17,58,14.50
2016,02,17,17,59,14.50
2016,02,17,18,00,6.40
2016,02,17,18,01,6.40
2016,02,17,18,02,11.30
2016,02,17,18,03,6.40
2016,02,17,18,04,8.10
2016,02,17,18,05,8.10
2016,02,17,18,06,8.10
2016,02,17,18,07,9.60
2016,02,17,18,08,8.10
2016,02,17,18,09,12.90
2016,02,17,18,10,9.60
2016,02,17,18,11,6.40
2016,02,17,18,12,4.80
2016,02,17,18,13,4.80
2016,02,17,18,14,6.40
2016,02,17,18,15,8.10
2016,02,17,18,16,3.20
2016,02,17,18,17,6.40
2016,02,17,18,18,8.10
2016,02,17,18,19,9.60
2016,02,17,18,20,9.60
2016,02,17,18,21,11.30
2016,02,17,18,22,6.40
2016,02,17,18,23,11.30
2016,02,17,18,24,12.90
2016,02,17,18,25,11.30
2016,02,17,18,26,11.30
2016,02,17,18,27,11.30
2016,02,17,18,28,11.30
2016,02,17,18,29,12.90
2016,02,17,18,30,6.40
2016,02,17,18,31,11.30
2016,02,17,18,32,8.10
2016,02,17,18,33,8.10
2016,02,17,18,34,6.40
2016,02,17,18,35,6.40
2016,02,17,18,36,8.10
2016,02,17,18,37,6.40
2016,02,17,18,38,4.80
2016,02,17,18,39,6.40
2016,02,17,18,40,6.40
2016,02,17,18,41,4.80
2016,02,17,18,42,6.40
2016,02,17,18,43,4.80
2016,02,17,18,44,8.10
2016,02,17,18,45,8.10
2016,02,17,18,46,6.40
2016,02,17,18,47,6.40
2016,02,17,18,48,6.40
2016,02,17,18,49,8.10
2016,02,17,18,50,8.10